Overview Statistics Trail Chart Weather Telemetry Raw packets
 

This is the latest recevied weather packets stored in our database for station/object GBTWP-2. If no packets are shown the sender has not sent any weather packets the latest 10 day(s).

<< 33 34 35 36 37 38 39 >>
Time Temp. Humidity Pressure Rain* Wind** Luminosity Snow
1788453420 21.67° C 93% 1017.1 hPa 0 mm - 216 W/m² -
1788453119 21.67° C 94% 1017 hPa 0 mm - 224 W/m² -
1788452820 21.11° C 93% 1017.1 hPa 0 mm - 209 W/m² -
1788452519 21.11° C 93% 1017.3 hPa 0 mm - 219 W/m² -
1788452218 21.11° C 95% 1017.2 hPa 1.78 mm - 213 W/m² -
1788451919 20.56° C 95% 1017.5 hPa 1.78 mm - 196 W/m² -
1788451620 20.56° C 94% 1017.6 hPa 1.78 mm - 142 W/m² -
1788451319 20° C 94% 1018.3 hPa 0 mm - 28 W/m² -
1788451019 20.56° C 94% 1017.9 hPa 0 mm - 26 W/m² -
1788450717 20.56° C 94% 1017.9 hPa 0 mm - 53 W/m² -
1788450420 20.56° C 94% 1018.3 hPa 1.27 mm - 53 W/m² -
1788450119 20.56° C 94% 1018.1 hPa 1.27 mm - 119 W/m² -
1788449820 20.56° C 94% 1018 hPa 0 mm - 80 W/m² -
1788449519 20.56° C 94% 1018.3 hPa 0 mm - 42 W/m² -
1788449220 20.56° C 94% 1018.5 hPa 1.78 mm - 23 W/m² -
1788448918 20.56° C 94% 1018.1 hPa 6.1 mm - 16 W/m² -
1788448618 21.11° C 94% 1018.4 hPa 6.1 mm - 15 W/m² -
1788448320 21.67° C 93% 1019.2 hPa 3.05 mm - 13 W/m² -
1788448020 23.33° C 92% 1019.9 hPa 4.32 mm - 3 W/m² -
1788447719 23.33° C 93% 1019.3 hPa 22.86 mm - 10 W/m² -
1788447419 24.44° C 89% 1018.1 hPa 18.54 mm - 17 W/m² -
1788447119 25° C 85% 1018.7 hPa 1.78 mm - 10 W/m² -
1788446819 25.56° C 83% 1018.5 hPa 0 mm - 2 W/m² -
1788446519 26.11° C 82% 1017.6 hPa 0 mm - 7 W/m² -
1788446220 26.67° C 79% 1017.4 hPa 0 mm - 15 W/m² -

* Rain latest hour (hover to see other rain measurements)
** Current wind speed in m/s (hover to see current wind gust speed)